WIF8XF ENRO-ESKS

Flight info

Callsign WIF8XF
Flight time 0h 37m
Altitude 23000
Route VEXOM DCT ROVPA DCT INBES
Aircraft DH8B/M-SDFGR/S

Departure

Time 2026-05-04 18:21
Airport Røros Airport (ENRO)

Arrival

Time 2026-05-04 18:58
Airport Scandinavian Mountains Airport (ESKS)
Time Latitude Longitude Altitude Speed Heading
2026-05-04 18:10 62.57653 11.35306 2122 ft 0 kts 45°
2026-05-04 18:20 62.57653 11.35318 2125 ft 3 kts 116°
2026-05-04 18:20 62.57601 11.35266 2133 ft 14 kts 225°
2026-05-04 18:20 62.57577 11.35179 2132 ft 0 kts 307°
2026-05-04 18:21 62.57580 11.35173 2132 ft 0 kts 317°
2026-05-04 18:21 62.57744 11.34824 2130 ft 86 kts 315°
2026-05-04 18:21 62.58337 11.33585 2257 ft 139 kts 316°
2026-05-04 18:21 62.59094 11.32099 2780 ft 155 kts 317°
2026-05-04 18:22 62.59938 11.30589 3551 ft 159 kts 317°
2026-05-04 18:22 62.60736 11.28876 4368 ft 162 kts 308°
2026-05-04 18:22 62.61139 11.26601 5114 ft 166 kts 278°
2026-05-04 18:22 62.60991 11.24091 5953 ft 173 kts 252°
2026-05-04 18:23 62.60241 11.21967 6708 ft 186 kts 224°
2026-05-04 18:23 62.59032 11.20856 7466 ft 194 kts 206°
2026-05-04 18:23 62.57831 11.19620 8253 ft 190 kts 217°
2026-05-04 18:23 62.56675 11.18207 9059 ft 191 kts 214°
2026-05-04 18:24 62.55465 11.16965 9874 ft 193 kts 211°
2026-05-04 18:24 62.54243 11.15746 10651 ft 192 kts 213°
2026-05-04 18:24 62.53045 11.14476 11428 ft 193 kts 212°
2026-05-04 18:24 62.52234 11.13665 11960 ft 194 kts 211°
2026-05-04 18:25 62.50611 11.11998 13058 ft 195 kts 212°
2026-05-04 18:25 62.49793 11.11153 13601 ft 196 kts 212°
2026-05-04 18:25 62.48530 11.09882 14387 ft 197 kts 212°
2026-05-04 18:25 62.47311 11.08624 15115 ft 200 kts 212°
2026-05-04 18:26 62.45565 11.06842 15782 ft 216 kts 211°
2026-05-04 18:26 62.44182 11.05440 16333 ft 222 kts 212°
2026-05-04 18:26 62.43229 11.04458 16719 ft 226 kts 211°
2026-05-04 18:26 62.41804 11.03010 17285 ft 232 kts 210°
2026-05-04 18:27 62.40324 11.01519 17884 ft 237 kts 210°
2026-05-04 18:27 62.38814 10.99975 18367 ft 241 kts 211°
2026-05-04 18:27 62.37290 10.98434 18880 ft 242 kts 211°
2026-05-04 18:27 62.35755 10.96891 19404 ft 243 kts 213°
2026-05-04 18:28 62.34238 10.95336 19911 ft 245 kts 213°
2026-05-04 18:28 62.32682 10.93772 20436 ft 247 kts 213°
2026-05-04 18:28 62.31123 10.92209 20948 ft 248 kts 214°
2026-05-04 18:28 62.29558 10.90617 21483 ft 249 kts 215°
2026-05-04 18:29 62.27981 10.89038 22017 ft 250 kts 215°
2026-05-04 18:29 62.26396 10.87446 22557 ft 251 kts 216°
2026-05-04 18:29 62.24780 10.85795 22729 ft 264 kts 216°
2026-05-04 18:29 62.23033 10.84221 22734 ft 285 kts 205°
2026-05-04 18:30 62.18780 10.84700 22745 ft 338 kts 169°
2026-05-04 18:30 62.16647 10.87163 22751 ft 351 kts 159°
2026-05-04 18:30 62.14496 10.89623 22742 ft 347 kts 164°
2026-05-04 18:31 62.12359 10.91818 22738 ft 344 kts 165°
2026-05-04 18:31 62.10222 10.94158 22739 ft 347 kts 162°
2026-05-04 18:31 62.08102 10.96682 22704 ft 348 kts 164°
2026-05-04 18:31 62.05948 10.99044 22731 ft 348 kts 167°
2026-05-04 18:32 62.03765 11.01337 22724 ft 351 kts 165°
2026-05-04 18:32 62.01627 11.03811 22721 ft 353 kts 163°
2026-05-04 18:32 61.99466 11.06228 22689 ft 347 kts 167°
2026-05-04 18:32 61.97273 11.08428 22699 ft 349 kts 166°
2026-05-04 18:33 61.95110 11.10894 22712 ft 354 kts 163°
2026-05-04 18:33 61.92958 11.13477 22716 ft 353 kts 164°
2026-05-04 18:33 61.90783 11.15831 22721 ft 349 kts 167°
2026-05-04 18:33 61.88622 11.18072 22710 ft 351 kts 166°
2026-05-04 18:34 61.86460 11.20535 22705 ft 353 kts 164°
2026-05-04 18:34 61.84291 11.22960 22705 ft 350 kts 166°
2026-05-04 18:34 61.82100 11.25235 22705 ft 350 kts 166°
2026-05-04 18:34 61.79956 11.27634 22707 ft 353 kts 164°
2026-05-04 18:35 61.77785 11.30063 22701 ft 350 kts 166°
2026-05-04 18:35 61.75600 11.32327 22604 ft 351 kts 167°
2026-05-04 18:35 61.73410 11.34751 22694 ft 357 kts 166°
2026-05-04 18:35 61.71203 11.37207 22699 ft 357 kts 167°
2026-05-04 18:36 61.69007 11.39491 22696 ft 356 kts 167°
2026-05-04 18:36 61.66796 11.41919 22668 ft 357 kts 166°
2026-05-04 18:36 61.64616 11.44344 22607 ft 347 kts 168°
2026-05-04 18:36 61.62458 11.46575 22047 ft 345 kts 168°
2026-05-04 18:37 61.60306 11.48885 21510 ft 348 kts 165°
2026-05-04 18:37 61.58094 11.51367 20978 ft 345 kts 166°
2026-05-04 18:37 61.56055 11.53470 20501 ft 341 kts 167°
2026-05-04 18:37 61.53927 11.55726 19988 ft 340 kts 164°
2026-05-04 18:38 61.51871 11.58024 19497 ft 336 kts 164°
2026-05-04 18:38 61.49788 11.60181 19017 ft 331 kts 166°
2026-05-04 18:38 61.47725 11.62357 18534 ft 330 kts 163°
2026-05-04 18:38 61.45718 11.64580 18068 ft 327 kts 163°
2026-05-04 18:39 61.43686 11.66683 17514 ft 322 kts 164°
2026-05-04 18:39 61.41681 11.68787 16926 ft 321 kts 163°
2026-05-04 18:39 61.39735 11.70927 16385 ft 318 kts 163°
2026-05-04 18:39 61.37759 11.72960 15840 ft 314 kts 164°
2026-05-04 18:40 61.35857 11.74967 15332 ft 302 kts 161°
2026-05-04 18:40 61.34009 11.76978 14801 ft 297 kts 162°
2026-05-04 18:40 61.32172 11.78854 14297 ft 292 kts 161°
2026-05-04 18:40 61.30366 11.80768 13791 ft 290 kts 159°
2026-05-04 18:41 61.28579 11.82688 13266 ft 286 kts 160°
2026-05-04 18:41 61.26813 11.84492 12714 ft 284 kts 160°
2026-05-04 18:41 61.25058 11.86349 12166 ft 282 kts 158°
2026-05-04 18:41 61.23311 11.88207 11627 ft 280 kts 159°
2026-05-04 18:42 61.21561 11.89992 11091 ft 278 kts 159°
2026-05-04 18:42 61.19848 11.91817 10560 ft 276 kts 159°
2026-05-04 18:42 61.18134 11.93604 10041 ft 273 kts 161°
2026-05-04 18:42 61.16466 11.95315 9705 ft 267 kts 160°
2026-05-04 18:43 61.14859 11.97031 9642 ft 252 kts 160°
2026-05-04 18:43 61.13327 11.98602 9632 ft 239 kts 161°
2026-05-04 18:43 61.11852 12.00122 9630 ft 239 kts 161°
2026-05-04 18:43 61.10347 12.01700 9637 ft 244 kts 161°
2026-05-04 18:44 61.08815 12.03283 9645 ft 247 kts 161°
2026-05-04 18:44 61.07809 12.04316 9648 ft 249 kts 161°
2026-05-04 18:44 61.05726 12.06486 9651 ft 251 kts 161°
2026-05-04 18:44 61.04161 12.08096 9645 ft 251 kts 161°
2026-05-04 18:45 61.02606 12.09700 9646 ft 255 kts 160°
2026-05-04 18:45 61.00992 12.11361 9653 ft 262 kts 160°
2026-05-04 18:45 60.99350 12.13056 9665 ft 266 kts 160°
2026-05-04 18:45 60.97679 12.14780 9672 ft 269 kts 160°
2026-05-04 18:46 60.95996 12.16507 9673 ft 272 kts 159°
2026-05-04 18:46 60.94439 12.18799 9663 ft 284 kts 137°
2026-05-04 18:46 60.93409 12.22350 9669 ft 290 kts 120°
2026-05-04 18:46 60.92443 12.25909 9668 ft 287 kts 128°
2026-05-04 18:47 60.91319 12.29301 9661 ft 286 kts 129°
2026-05-04 18:47 60.90244 12.32773 9667 ft 288 kts 125°
2026-05-04 18:47 60.89256 12.36348 9658 ft 288 kts 124°
2026-05-04 18:47 60.88209 12.39843 9667 ft 286 kts 128°
2026-05-04 18:48 60.87146 12.43256 9664 ft 286 kts 126°
2026-05-04 18:48 60.86137 12.46791 9652 ft 285 kts 126°
2026-05-04 18:48 60.85102 12.50268 9664 ft 285 kts 129°
2026-05-04 18:48 60.84049 12.53670 9656 ft 285 kts 128°
2026-05-04 18:49 60.83036 12.57182 9655 ft 286 kts 127°
2026-05-04 18:49 60.81993 12.60637 9653 ft 284 kts 130°
2026-05-04 18:49 60.81185 12.64367 9638 ft 290 kts 107°
2026-05-04 18:49 60.81175 12.68516 9627 ft 295 kts 77°
2026-05-04 18:50 60.82061 12.72272 9639 ft 292 kts 47°
2026-05-04 18:50 60.83557 12.74909 9646 ft 286 kts 32°
2026-05-04 18:50 60.84918 12.77782 9349 ft 280 kts 56°
2026-05-04 18:50 60.85767 12.81338 8936 ft 278 kts 64°
2026-05-04 18:51 60.86691 12.84800 8518 ft 273 kts 53°
2026-05-04 18:51 60.87809 12.87934 8065 ft 271 kts 50°
2026-05-04 18:51 60.88880 12.91014 7560 ft 265 kts 54°
2026-05-04 18:51 60.89841 12.94190 7034 ft 252 kts 57°
2026-05-04 18:52 60.90755 12.97126 6501 ft 235 kts 53°
2026-05-04 18:52 60.91671 12.99843 5953 ft 237 kts 53°
2026-05-04 18:52 60.92565 13.02727 5402 ft 240 kts 55°
2026-05-04 18:52 60.93474 13.05608 4879 ft 239 kts 53°
2026-05-04 18:53 60.94430 13.08277 4692 ft 221 kts 40°
2026-05-04 18:53 60.95646 13.09914 4664 ft 199 kts 12°
2026-05-04 18:53 60.96928 13.09784 4634 ft 185 kts 327°
2026-05-04 18:53 60.97995 13.08371 4673 ft 184 kts 322°
2026-05-04 18:54 60.99093 13.06952 4679 ft 188 kts 322°
2026-05-04 18:54 61.00190 13.05474 4682 ft 189 kts 321°
2026-05-04 18:54 61.01295 13.03963 4680 ft 190 kts 322°
2026-05-04 18:54 61.02411 13.02486 4689 ft 191 kts 322°
2026-05-04 18:55 61.03512 13.00981 4600 ft 196 kts 322°
2026-05-04 18:55 61.05680 12.98079 4071 ft 169 kts 322°
2026-05-04 18:55 61.06629 12.96787 3830 ft 160 kts 322°
2026-05-04 18:56 61.07549 12.95539 3615 ft 156 kts 322°
2026-05-04 18:56 61.08441 12.94323 3389 ft 151 kts 322°
2026-05-04 18:56 61.09302 12.93153 3185 ft 149 kts 322°
2026-05-04 18:56 61.10162 12.91980 2990 ft 148 kts 322°
2026-05-04 18:57 61.11016 12.90825 2833 ft 142 kts 323°
2026-05-04 18:57 61.11843 12.89709 2611 ft 141 kts 322°
2026-05-04 18:57 61.12661 12.88594 2406 ft 140 kts 323°
2026-05-04 18:57 61.13463 12.87492 2202 ft 139 kts 324°
2026-05-04 18:58 61.14259 12.86411 1995 ft 133 kts 325°
2026-05-04 18:58 61.15011 12.85399 1788 ft 125 kts 327°
2026-05-04 18:58 61.15697 12.84464 1635 ft 110 kts 327°
2026-05-04 18:58 61.16073 12.83957 1635 ft 11 kts 329°
2026-05-04 18:59 61.16090 12.83934 1635 ft 8 kts 159°
2026-05-04 18:59 61.16016 12.84032 1633 ft 18 kts 146°
2026-05-04 18:59 61.15897 12.84195 1629 ft 23 kts 147°
2026-05-04 18:59 61.15761 12.84236 1627 ft 21 kts 238°
2026-05-04 19:00 61.15714 12.84087 1629 ft 8 kts 236°
2026-05-04 19:00 61.15677 12.84038 1631 ft 6 kts 172°
2026-05-04 19:00 61.15635 12.84090 1631 ft 9 kts 147°
2026-05-04 19:00 61.15606 12.84070 1632 ft 3 kts 294°
2026-05-04 19:01 61.15613 12.84028 1633 ft 5 kts 284°
2026-05-04 19:01 61.15616 12.84000 1634 ft 0 kts 279°